User: anonymous   Login
Location: Unspecified
(0.0000°N, 0.0000°E)
Time: 20:46:42
(UTC+00:00)
Language:

ONEWEB-0669 - Orbit

View from above orbital plane
View from above orbital plane
View from above satellite
View from above satellite

Ground track
Ground track

The orbit is defined by the following mean orbital elements,

1 55828U          26145.37130620 +.00000000 +00000-0 +11101-3 0 00008
2 55828  87.9172 278.9911 0002443  97.7397 262.4013 13.20770644    08
Epoch (UTC): 25 May 2026 08:54:40
Eccentricity: 0.0002443
inclination: 87.9172°
perigee height: 1180 km
apogee height: 1184 km
right ascension of ascending node: 278.9911°
argument of perigee: 97.7397°
revolutions per day: 13.20770644
mean anomaly at epoch: 262.4013°

The dashed part of the orbit path shows where the satellite is in the earth's shadow,  

DLR